Location: Warszawa
(52.2500°N, 21.0000°E)
Time: 20:08:17
(UTC+02:00)

Vanguard 2 - Pass Details

Date: 04 February 2023
Orbit: 553 x 2927 km, 32.9° (Epoch: 27 March)

Event Time Altitude Azimuth Distance (km) Brightness Sun altitude
Exits shadow 02:41:00 18° 172° (S) 4,773 11.3 -40.8°
Drops below altitude 10° 02:44:35 10° 160° (SSE) 5,199 11.6 -40.3°
Sets 02:49:06 0° 149° (SSE) 5,908 12.1 -39.7°
